THOR AGENA B DEB, 511

Orbit data source: Space-Track

THOR AGENA B DEB, 511 is space debris in LEO originally from a launch on Sat, 29 Sep 1962 UTC launched from the Air Force Western Test Range (AFWTR). Debris objects in space refer to the collection of defunct objects orbiting the Earth. Examples of debris include non-operational satellites, rocket bodies, and fragments generated from explosions, collisions, or faulty payload assembly.

Loading next visibility...
Identifier
511, 1962-049D
Orbit
LEO
Last TLE update
19 hours ago
Origin
Manufacturer
Unknown
Mission
Spacecraft
Bus & Motor
Unknown
Mass
Unknown
Launch date (UTC)
1962-09-29 (63 years ago)
Launch vehicle
Unknown
Launch site
Air Force Western Test Range (AFWTR)
Object type
Payload
Rocket body
Debris
Shape & HBR
Unknown
Radar Cross Section
Small (<0.1 m²)

Expand to show TLE details & history

TLE from 19 hours ago
0 THOR AGENA B DEB
1   511U 62049D   25128.60633194  .00000078  00000-0  80740-4 0  9996
2   511  80.4288 233.1411 0030613 297.8354 123.6032 13.68505023124710
Epoch: 2025-05-08T14:33Z
Definitive object data (Epoch: 2025-05-08T14:33:07.079Z)
Latitude
60.3752°
Longitude
165.34444°
Altitude
1,027.709 km
Speed
7.337 km/s
True Right ascension
16h 41m 11s
True Declination
60° 13' 57"
Sunlit
Object was in daylight at TLE epoch
Visualization TLE readout
Latitude
-52.8295°
Longitude
134.63157°
Altitude
1,003.138 km
Speed
7.36 km/s
Apparent Right ascension
09h 35m 19s
Apparent Declination
-71° 09' 06"
Sunlit
Object is in full shadow
Visualization observer readout
Local Sidereal Time
17:26:48
Azimuth
204.422° SW
Elevation
-46.31°
Doppler factor
1
Orbital elements
Apogee altitude
1,024.807 km
Perigee altitude
979.62 km
Semi-major axis
7,380.35 km
Eccentricity
0.0030613
Inclination
80.4288°
RAAN
233.1411°
Arg. of periapsis
297.8354°
True anomaly
123.89476°
Mean anomaly
123.6032°
Eccentric anomaly
123.74904°
Mean motion
3.42316 °/min
BSTAR
0.00008074
Orbital period
105.17 mins
Loading maneuver chart data...
Loading SW <> Apogee altitude chart data...
Loading historical data...
Loading historical data...
Loading historical data...
Loading historical data...
Loading historical data...
Loading historical data...
Loading historical data...
Other satellites on launch #49 in the year 1962 (1962-09-29 UTC)

THOR AGENA B DEB Visibility forecast

Observer location: undefined°, undefined°

Span
Click to sort rows by Start time (UTC) header in descending order
Start Az.
Max El. time (UTC)
Max El. Az.
Max El.
End time (UTC)
End Az.
4 mins2025-05-09 09:45:30.506Z283.728° WNW2025-05-09 09:47:30.506Z302.834° NW11.911°2025-05-09 09:49:30.506Z321.381° NNW
7 mins2025-05-09 17:10:30.506Z31.764° NE2025-05-09 17:13:30.506Z63.753° ENE18.056°2025-05-09 17:17:30.506Z104.613° ESE
11 mins2025-05-09 18:55:30.506Z342.638° N2025-05-09 19:00:30.506Z266.288° W43.043°2025-05-09 19:06:30.506Z182.237° SSW
9 mins2025-05-10 06:44:30.506Z138.398° SSE2025-05-10 06:48:30.506Z82.567° E27.841°2025-05-10 06:53:30.506Z30.603° NE
10 mins2025-05-10 08:29:30.506Z225.665° WSW2025-05-10 08:34:30.506Z292.5° NW31.693°2025-05-10 08:39:30.506Z351.908° N
|